Weather History for Moose Lake, MN

Change the Weather History Date:

Wednesday, January 18, 2012

  Actual Average Record
Temperature  
Mean Temperature 5 °F -  
Max Temperature 21 °F 20 °F 48 °F (1981)
Min Temperature -11 °F 0 °F -38 °F (1967)
Degree Days  
Heating Degree Days 60    
Moisture  
Dew Point -7 °F    
Average Humidity 60    
Maximum Humidity 74    
Minimum Humidity 46    
Precipitation  
Precipitation 0.00 in - - ()
Sea Level Pressure  
Sea Level Pressure 29.85 in    
Wind  
Wind Speed 4 mph (WSW)    
Max Wind Speed 21 mph    
Max Gust Speed 31 mph    
Visibility 9 miles    
Events Snow    
Averages and records for this station are not official NWS values.
T = Trace of Precipitation, MM = Missing Value Source: NWS Daily Summary

Daily Weather History Graph

Daily Weather History Graph

Search for Another Location

Airport:

Trip Planner

Search our weather history database for the weather conditions in past years. The results will help you decide how hot, cold, wet, or windy it might be!

Date:

Astronomy

Jan. 18, 2012 Rise Set
Actual Time 7:48 AM CST 4:54 PM CST
Civil Twilight 7:15 AM CST 5:28 PM CST
Nautical Twilight 6:38 AM CST 6:05 PM CST
Astronomical Twilight 6:02 AM CST 6:41 PM CST
Moon 3:20 AM CST (1/18) 12:31 PM CST (1/18)
Length of Visible Light 10h 12m
Length of Day
9h 05m
Waning Crescent, 24% of the Moon is Illuminated
Jan 18
Waning Crescent
Jan 23
New
Jan 30
First Quarter
Feb 7
Full
Feb 14
Last Quarter

Hourly Weather History & Observations

Time (CST) Temp. Windchill Dew Point Humidity Pressure Visibility Wind Dir Wind Speed Gust Speed Precip Events Conditions
12:10 AM -5.8 °F - -14.8 °F 65% 30.16 in 10.0 mi Calm Calm - N/A   Mostly Cloudy
12:30 AM -5.8 °F - -14.8 °F 65% 30.15 in 10.0 mi Calm Calm - N/A   Scattered Clouds
1:10 AM -5.8 °F - -14.8 °F 65% 30.14 in 10.0 mi Calm Calm - N/A   Scattered Clouds
1:30 AM -7.6 °F - -14.8 °F 71% 30.13 in 10.0 mi Calm Calm - N/A   Scattered Clouds
1:50 AM -7.6 °F - -16.6 °F 65% 30.13 in 10.0 mi Calm Calm - N/A   Scattered Clouds
2:30 AM -7.6 °F - -16.6 °F 65% 30.12 in 10.0 mi Calm Calm - N/A   Scattered Clouds
2:50 AM -7.6 °F - -16.6 °F 65% 30.12 in 10.0 mi Calm Calm - N/A   Scattered Clouds
3:10 AM -9.4 °F - -16.6 °F 71% 30.11 in 10.0 mi Calm Calm - N/A   Scattered Clouds
3:30 AM -9.4 °F - -18.4 °F 65% 30.10 in 10.0 mi Calm Calm - N/A   Clear
3:50 AM -9.4 °F - -18.4 °F 65% 30.09 in 10.0 mi Calm Calm - N/A   Clear
4:10 AM -9.4 °F - -20.2 °F 59% 30.09 in 10.0 mi Calm Calm - N/A   Scattered Clouds
4:30 AM -9.4 °F - -18.4 °F 65% 30.08 in 10.0 mi Calm Calm - N/A   Clear
4:50 AM -9.4 °F - -18.4 °F 65% 30.07 in 10.0 mi Calm Calm - N/A   Scattered Clouds
5:10 AM -9.4 °F - -18.4 °F 65% 30.06 in 10.0 mi Calm Calm - N/A   Scattered Clouds
5:30 AM -9.4 °F - -20.2 °F 59% 30.05 in 10.0 mi Calm Calm - N/A   Scattered Clouds
5:50 AM -11.2 °F - -20.2 °F 64% 30.04 in 10.0 mi Calm Calm - N/A   Clear
6:10 AM -9.4 °F - -18.4 °F 65% 30.02 in 10.0 mi Calm Calm - N/A   Clear
6:30 AM -9.4 °F - -18.4 °F 65% 30.00 in 10.0 mi Calm Calm - N/A   Clear
6:50 AM -9.4 °F - -18.4 °F 65% 29.98 in 10.0 mi Calm Calm - N/A   Clear
7:10 AM -7.6 °F - -16.6 °F 65% 29.97 in 10.0 mi Calm Calm - N/A   Clear
7:30 AM -7.6 °F - -16.6 °F 65% 29.95 in 10.0 mi Calm Calm - N/A   Scattered Clouds
7:50 AM -4.0 °F - -13.0 °F 65% 29.94 in 10.0 mi Calm Calm - N/A   Scattered Clouds
8:10 AM -4.0 °F - -13.0 °F 65% 29.93 in 10.0 mi Calm Calm - N/A   Clear
8:31 AM -2.2 °F - -11.2 °F 66% 29.92 in 10.0 mi Calm Calm - N/A   Clear
9:10 AM -0.4 °F - -9.4 °F 66% 29.89 in 10.0 mi Calm Calm - N/A   Scattered Clouds
9:30 AM 1.4 °F - -7.6 °F 66% 29.87 in 10.0 mi Calm Calm - N/A   Clear
9:50 AM 3.2 °F - -5.8 °F 66% 29.86 in 10.0 mi Calm Calm - N/A   Clear
10:10 AM 8.6 °F -5.5 °F -2.2 °F 62% 29.84 in 10.0 mi South 10.4 mph - N/A   Clear
10:30 AM 10.4 °F -2.4 °F -0.4 °F 62% 29.82 in 10.0 mi South 9.2 mph - N/A   Clear
10:52 AM 10.4 °F -5.4 °F -0.4 °F 62% 29.81 in 10.0 mi South 13.8 mph 18.4 mph N/A   Mostly Cloudy
11:10 AM 12.2 °F 1.7 °F -0.4 °F 57% 29.79 in 10.0 mi SSW 6.9 mph - N/A   Overcast
11:30 AM 12.2 °F -1.8 °F -0.4 °F 57% 29.77 in 10.0 mi SSW 11.5 mph - N/A   Overcast
11:50 AM 14.0 °F 2.0 °F 1.4 °F 57% 29.74 in 10.0 mi SSW 9.2 mph - N/A   Scattered Clouds
12:10 PM 17.6 °F 2.7 °F 1.4 °F 49% 29.72 in 10.0 mi South 16.1 mph 20.7 mph N/A   Scattered Clouds
12:30 PM 17.6 °F 5.7 °F 1.4 °F 49% 29.69 in 10.0 mi SSW 10.4 mph 18.4 mph N/A   Mostly Cloudy
12:50 PM 19.4 °F 7.2 °F 1.4 °F 46% 29.66 in 10.0 mi South 11.5 mph 20.7 mph N/A   Overcast
1:10 PM 19.4 °F 4.5 °F 1.4 °F 46% 29.65 in 10.0 mi South 17.3 mph 24.2 mph N/A   Mostly Cloudy
1:30 PM 19.4 °F 6.6 °F 1.4 °F 46% 29.63 in 10.0 mi South 12.7 mph 20.7 mph N/A   Mostly Cloudy
2:10 PM 21.2 °F 6.8 °F 3.2 °F 46% 29.64 in 10.0 mi SW 17.3 mph 23.0 mph N/A   Mostly Cloudy
2:30 PM 21.2 °F 11.7 °F 3.2 °F 46% 29.63 in 10.0 mi SSW 8.1 mph 17.3 mph N/A   Overcast
2:50 PM 21.2 °F 12.6 °F 5.0 °F 50% 29.62 in 10.0 mi SSW 6.9 mph - N/A   Overcast
3:10 PM 21.2 °F 10.1 °F 5.0 °F 50% 29.60 in 10.0 mi SSW 10.4 mph 17.3 mph N/A   Overcast
3:30 PM 21.2 °F 8.9 °F 5.0 °F 50% 29.60 in 10.0 mi SSW 12.7 mph 17.3 mph N/A   Overcast
3:50 PM 21.2 °F 10.1 °F 5.0 °F 50% 29.60 in 10.0 mi SW 10.4 mph 16.1 mph N/A   Overcast
4:10 PM 21.2 °F 11.7 °F 5.0 °F 50% 29.60 in 10.0 mi SW 8.1 mph - N/A   Overcast
4:50 PM 19.4 °F 11.5 °F 12.2 °F 74% 29.60 in 1.0 mi WSW 5.8 mph - N/A Snow Snow
5:10 PM 19.4 °F 14.3 °F 12.2 °F 74% 29.60 in 1.0 mi West 3.5 mph - N/A Snow Light Snow
5:30 PM 19.4 °F 11.5 °F 12.2 °F 74% 29.60 in 3.0 mi WNW 5.8 mph - N/A Snow Light Snow
6:10 PM 15.8 °F 2.1 °F 6.8 °F 68% 29.62 in 1.5 mi NW 12.7 mph - N/A Snow Light Snow
6:30 PM 14.0 °F -1.4 °F 3.2 °F 62% 29.63 in 3.0 mi NNW 15.0 mph 23.0 mph N/A Snow Light Snow
6:50 PM 10.4 °F -8.6 °F -0.4 °F 62% 29.65 in 3.0 mi NW 20.7 mph 28.8 mph N/A Snow Light Snow
7:10 PM 8.6 °F -11.0 °F -4.0 °F 57% 29.67 in 3.0 mi NW 20.7 mph 31.1 mph N/A Snow Light Snow
7:30 PM 5.0 °F -14.7 °F -7.6 °F 56% 29.69 in 3.0 mi NW 18.4 mph 26.5 mph N/A Snow Light Snow
7:50 PM 5.0 °F -14.2 °F -7.6 °F 56% 29.70 in 4.0 mi NW 17.3 mph 27.6 mph N/A   Haze
8:10 PM 3.2 °F -12.2 °F -9.4 °F 56% 29.72 in 5.0 mi NNW 10.4 mph 25.3 mph N/A   Haze
8:30 PM 1.4 °F -16.9 °F -9.4 °F 61% 29.74 in 5.0 mi NW 13.8 mph 17.3 mph N/A   Haze
8:50 PM -0.4 °F -15.7 °F -13.0 °F 55% 29.76 in 10.0 mi NW 9.2 mph 19.6 mph N/A   Mostly Cloudy
9:10 PM -0.4 °F -16.7 °F -16.6 °F 46% 29.77 in 10.0 mi NW 10.4 mph 18.4 mph N/A   Scattered Clouds
9:30 PM -4.0 °F -22.1 °F -16.6 °F 55% 29.78 in 10.0 mi NW 11.5 mph 20.7 mph N/A   Clear
9:50 PM -4.0 °F -23.7 °F -16.6 °F 55% 29.79 in 10.0 mi WNW 13.8 mph 24.2 mph N/A   Clear
10:10 PM -5.8 °F -26.0 °F -18.4 °F 55% 29.80 in 10.0 mi WNW 13.8 mph 19.6 mph N/A   Scattered Clouds
10:30 PM -5.8 °F -27.5 °F -20.2 °F 50% 29.81 in 10.0 mi NW 16.1 mph 20.7 mph N/A   Clear
10:50 PM -7.6 °F -29.1 °F -20.2 °F 54% 29.82 in 10.0 mi NW 15.0 mph 21.9 mph N/A   Clear
11:10 PM -7.6 °F -25.7 °F -20.2 °F 54% 29.83 in 10.0 mi NW 10.4 mph 25.3 mph N/A   Clear
11:30 PM -7.6 °F -27.5 °F -22.0 °F 50% 29.84 in 10.0 mi NW 12.7 mph 20.7 mph N/A   Clear
11:50 PM -7.6 °F -24.6 °F -22.0 °F 50% 29.85 in 10.0 mi NW 9.2 mph - N/A   Clear